Flag for Madagascar Weather past 2 weeks in Toamasina, Madagascar

Now
75 °F

Light rain. Mostly cloudy.


Feels Like: 73 °F
Forecast: 76 / 86 °F
Wind: 5 mph from South

Location: Tamatave

Current Time: Mar 6, 2015 at 11:42:47 PM

Latest Report: Mar 6, 2015 at 11:00 PM


Visibility: 2 mi

Pressure: 29.80 "Hg

Humidity: 100%

Dew point: 75 °F

Location of ToamasinaLocation

Historic Weather in Toamasina — Graph

°F

Toamasina temperature yesterday

Maximum temperature yesterday: 86 °F (at 12:00 PM)
Minimum temperature yesterday: 73 °F (at 4:00 AM)
Average temperature yesterday: 79 °F

Past Weeks' High & Low Weather Summary

 TemperatureHumidityPressure
High93 °F (Feb 23, 1:00 AM)100% (Feb 21, 3:00 AM)30.01 "Hg (Feb 21, 3:00 AM)
Low73 °F (Feb 27, 3:00 AM)53% (Feb 23, 1:00 AM)29.71 "Hg (Feb 20, 4:00 PM)
Average80 °F88%29.82 "Hg
* Reported Feb 19 10:00 PM — Mar 6 10:00 PM, Toamasina, Weather by CustomWeather, © 2015

Note: Actual official high and low records may vary slightly from our data, if they occured in-between our weather recording intervals... More about our weather records

Advertising

Toamasina weather history for previous 24 hours

 ConditionsComfort  
Time TempWeatherWind HumidityBarometerVisibility
10:00 PM
Fri, Mar 6
77 °FLight rain. Mostly cloudy.7 mph100%29.80 "Hg2 mi
9:00 PM77 °FLight rain. Mostly cloudy.9 mph100%29.80 "Hg2 mi
8:00 PM77 °FLight rain. Mostly cloudy.9 mph94%29.80 "Hg2 mi
7:00 PM77 °FLight rain. Mostly cloudy.12 mph94%29.83 "Hg2 mi
6:00 PM77 °FLight rain. More clouds than sun.12 mph94%29.77 "Hg2 mi
5:00 PM77 °FLight rain. More clouds than sun.16 mph100%29.77 "Hg2 mi
4:00 PM77 °FRain. More clouds than sun.16 mph94%29.77 "Hg1 mi
3:00 PM77 °FLight rain. More clouds than sun.16 mph94%29.77 "Hg2 mi
2:00 PM79 °FLight rain. More clouds than sun.16 mph94%29.77 "Hg2 mi
1:00 PM79 °FRain. Broken clouds.16 mph94%29.80 "Hg2 mi
12:00 PM79 °FLight rain. Broken clouds.16 mph89%29.86 "Hg4 mi
11:00 AM81 °FScattered showers. Broken clouds.18 mph89%29.86 "HgN/A
10:00 AM81 °FScattered showers. Broken clouds.16 mph89%29.89 "HgN/A
9:00 AM77 °FScattered showers. Partly sunny.14 mph94%29.89 "HgN/A
8:00 AM75 °FLight rain. Broken clouds.12 mph100%29.89 "Hg4 mi
7:00 AM75 °FRain. Broken clouds.9 mph94%29.86 "Hg1 mi
6:00 AM75 °FLight rain. Broken clouds.9 mph94%29.86 "Hg5 mi
5:00 AM75 °FScattered showers. Passing clouds.5 mph94%29.83 "HgN/A
4:00 AM75 °FLight rain. Partly cloudy.5 mph94%29.83 "Hg4 mi
3:00 AM75 °FLight rain. Partly cloudy.5 mph100%29.83 "Hg4 mi
2:00 AM75 °FScattered showers. Partly cloudy.2 mph94%29.83 "HgN/A
1:00 AM75 °FScattered showers. Partly cloudy.2 mph94%29.86 "HgN/A
12:00 AM77 °FScattered showers. Partly cloudy.2 mph94%29.86 "HgN/A
11:00 PM
Thu, Mar 5
77 °FPartly cloudy.2 mph94%29.89 "HgN/A
Weather by CustomWeather, © 2015

See weather overviewHow to use our weather pages